ED1ZAI-13 Weather Reports


time (UTC)temp
C
wind
direction
speed
KPH
gust
KPH
rain 1hr
cm
rain 24hr
cm
rain mn
cm
humidity
%
barometer
mb
20260506103125 12 255 1.6 6.4 0.00 0.00 0.00 44 1011.5
20260506102124 15 128 0.0 3.2 0.00 0.00 0.00 39 1011.5
20260506101124 13 218 0.0 0.0 0.00 0.00 0.00 43 1011.6
20260506100126 12 210 1.6 4.8 0.00 0.00 0.00 48 1011.7
20260506095125 13 279 0.0 6.4 0.00 0.00 0.00 42 1011.6
20260506094125 13 131 1.6 4.8 0.00 0.00 0.00 43 1011.5
20260506093125 12 154 1.6 4.8 0.00 0.00 0.00 44 1011.6
20260506092125 12 168 1.6 4.8 0.00 0.00 0.00 42 1011.4
20260506091124 15 306 0.0 3.2 0.00 0.00 0.00 41 1011.4
20260506090124 13 261 0.0 4.8 0.00 0.00 0.00 43 1011.5
20260506085124 14 359 0.0 1.6 0.00 0.00 0.00 42 1011.4
20260506084123 14 359 0.0 1.6 0.00 0.00 0.00 38 1011.3
20260506082901 13 237 0.0 3.2 0.00 0.00 0.00 41 1011.4
20260506081901 12 280 0.0 1.6 0.00 0.00 0.00 49 1011.4
20260506080900 12 288 0.0 1.6 0.00 0.00 0.00 47 1011.4
20260506072901 9 292 0.0 0.0 0.00 0.00 0.00 66 1011.6
20260506071901 7 290 0.0 0.0 0.00 0.00 0.00 71 1011.7
20260506070901 6 290 0.0 0.0 0.00 0.00 0.00 73 1011.7
20260506061901 5 292 0.0 0.0 0.00 0.00 0.00 75 1011.5
20260506060900 5 292 0.0 0.0 0.00 0.00 0.00 75 1011.5
20260506050901 4 292 0.0 0.0 0.00 0.00 0.00 77 1011.2
20260506044859 3 292 0.0 0.0 0.00 0.00 0.00 78 1011.2
20260506043901 3 290 0.0 0.0 0.00 0.00 0.00 77 1011.2
20260506042900 3 292 0.0 0.0 0.00 0.00 0.00 77 1011.2
20260506042134 3 292 0.0 0.0 0.00 0.00 0.00 77 1011.2
20260506041134 3 289 0.0 0.0 0.00 0.00 0.00 77 1011.2
20260506040134 3 290 0.0 0.0 0.00 0.00 0.00 76 1011.2
20260506035133 4 289 0.0 0.0 0.00 0.00 0.00 74 1011.2
20260506034133 5 289 0.0 0.0 0.00 0.00 0.00 74 1011.2
20260506033135 5 290 0.0 0.0 0.00 0.00 0.00 76 1011.3
20260506032135 5 290 0.0 0.0 0.00 0.00 0.00 77 1011.3
20260506031134 5 288 0.0 0.0 0.00 0.00 0.00 78 1011.3
20260506030134 3 290 0.0 0.0 0.00 0.00 0.00 78 1011.2
20260506025134 4 289 0.0 0.0 0.00 0.00 0.00 78 1011.2
20260506024133 4 288 0.0 0.0 0.00 0.00 0.00 77 1011.1
20260506023133 4 289 0.0 0.0 0.00 0.00 0.00 76 1011.2
20260506022135 5 290 0.0 0.0 0.00 0.00 0.00 74 1011.2
20260506021134 5 290 0.0 0.0 0.00 0.00 0.00 74 1011.2
20260506020134 5 290 0.0 0.0 0.00 0.00 0.00 75 1011.2
20260506015132 5 290 0.0 0.0 0.00 0.00 0.00 75 1011.2
20260506014132 5 288 0.0 0.0 0.00 0.00 0.00 78 1011.3
20260506013133 5 288 0.0 0.0 0.00 0.00 0.00 74 1011.1
20260506012133 6 288 0.0 0.0 0.00 0.00 0.00 74 1011.1
20260506011133 5 290 0.0 0.0 0.00 0.00 0.00 76 1011.1
20260506010131 5 290 0.0 0.0 0.00 0.00 0.00 76 1011.2
20260506005133 5 289 0.0 0.0 0.00 0.00 0.00 75 1011.2
20260506004133 5 290 0.0 0.0 0.00 0.00 0.00 76 1011.4
20260506003133 5 290 0.0 0.0 0.00 0.00 0.00 77 1011.5
20260506002132 5 359 0.0 0.0 0.00 0.00 0.00 74 1011.4
20260506001132 7 359 0.0 0.0 0.00 0.00 0.00 68 1011.3
20260506000132 7 359 0.0 0.0 0.00 0.00 0.00 68 1011.4
20260505235131 7 359 0.0 0.0 0.00 0.00 0.00 69 1011.4
20260505234133 6 359 0.0 0.0 0.00 0.00 0.00 69 1011.4
20260505233133 7 359 0.0 0.0 0.00 0.00 0.00 68 1011.4
20260505232133 7 359 0.0 0.0 0.00 0.00 0.00 67 1011.5
20260505231133 7 359 0.0 0.0 0.00 0.00 0.00 66 1011.5
20260505230132 7 359 0.0 0.0 0.00 0.00 0.00 66 1011.6
20260505225132 7 359 0.0 0.0 0.00 0.00 0.00 67 1011.6
20260505224132 7 359 0.0 0.0 0.00 0.00 0.00 66 1011.5
20260505223133 7 359 0.0 0.0 0.00 0.00 0.00 67 1011.6
20260505222133 7 7 0.0 0.0 0.00 0.05 0.00 66 1011.7
20260505221133 7 6 0.0 1.6 0.00 0.05 0.00 66 1011.8
20260505220133 8 304 0.0 0.0 0.00 0.10 0.05 64 1011.7
20260505210133 7 325 0.0 3.2 0.00 0.46 0.05 65 1011.4
20260505205133 7 325 0.0 3.2 0.00 0.46 0.05 65 1011.4
20260505204132 7 320 0.0 4.8 0.00 0.46 0.05 65 1011.4
20260505203132 7 292 1.6 4.8 0.00 0.46 0.05 66 1011.3
20260505202133 7 279 3.2 8.0 0.00 0.46 0.05 65 1011.2
20260505201133 7 296 3.2 9.7 0.00 0.46 0.05 63 1011.1
20260505200132 8 318 3.2 11.3 0.00 0.46 0.05 62 1010.9
20260505195132 8 324 1.6 8.0 0.00 0.46 0.05 60 1010.9
20260505194132 8 286 1.6 6.4 0.00 0.46 0.05 60 1010.7
20260505193131 10 359 1.6 6.4 0.00 0.46 0.05 56 1010.5
20260505192133 10 309 0.0 4.8 0.00 0.46 0.05 54 1010.4
20260505191132 10 253 0.0 4.8 0.00 0.46 0.05 53 1010.3
20260505190132 11 318 0.0 3.2 0.00 0.46 0.05 52 1010.3
20260505185133 11 285 1.6 6.4 0.00 0.46 0.05 51 1010.2
20260505184133 11 230 0.0 4.8 0.00 0.46 0.05 50 1010.1
20260505183133 11 346 1.6 8.0 0.00 0.46 0.05 47 1010.0
20260505182132 12 254 3.2 9.7 0.00 0.46 0.05 42 1009.9
20260505181132 12 295 1.6 6.4 0.00 0.46 0.05 39 1009.7
20260505180132 13 268 1.6 11.3 0.00 0.46 0.05 41 1009.6
20260505175134 13 244 1.6 8.0 0.00 0.46 0.05 40 1009.6
20260505174133 14 271 3.2 8.0 0.00 0.46 0.05 37 1009.6
20260505173133 13 281 3.2 8.0 0.00 0.46 0.05 36 1009.6
20260505172133 15 84 1.6 6.4 0.00 0.46 0.05 36 1009.7
20260505171132 15 301 1.6 6.4 0.00 0.46 0.05 39 1009.7
20260505170132 13 275 1.6 6.4 0.00 0.46 0.05 39 1009.5
20260505165132 15 289 3.2 8.0 0.00 0.46 0.05 38 1009.6
20260505164132 15 345 3.2 11.3 0.00 0.46 0.05 38 1009.6
20260505163132 16 342 1.6 8.0 0.00 0.46 0.05 35 1009.7
20260505162133 16 312 3.2 8.0 0.00 0.46 0.05 34 1009.6
20260505161133 12 263 3.2 9.7 0.00 0.46 0.05 43 1009.5
20260505160132 15 282 3.2 6.4 0.00 0.46 0.05 37 1009.4
20260505153133 14 359 1.6 8.0 0.00 0.46 0.05 37 1009.6
20260505152133 15 318 3.2 8.0 0.00 0.46 0.05 35 1009.6
20260505151132 16 337 1.6 6.4 0.00 0.46 0.05 34 1009.6
20260505150133 15 359 1.6 6.4 0.00 0.46 0.05 39 1009.7
20260505140132 13 230 8.0 14.5 0.00 0.46 0.05 38 1009.7
20260505124908 12 266 8.0 14.5 0.00 0.46 0.05 46 1010.0
20260505123907 12 293 6.4 9.7 0.00 0.51 0.05 45 1010.0
20260505122907 13 280 6.4 11.3 0.00 0.56 0.05 41 1010.0
20260505121907 12 293 6.4 12.9 0.00 0.56 0.05 44 1010.1
20260505120909 12 226 6.4 12.9 0.00 0.76 0.05 45 1010.1
20260505115907 12 239 6.4 12.9 0.00 0.79 0.05 51 1010.1
20260505114907 12 260 6.4 12.9 0.00 0.79 0.05 47 1010.3
20260505113906 11 298 8.0 14.5 0.00 0.79 0.05 44 1010.5
20260505112906 11 305 6.4 14.5 0.00 0.79 0.05 50 1010.6
20260505111906 11 89 6.4 11.3 0.00 0.79 0.05 50 1010.8
20260505110907 10 215 8.0 12.9 0.00 0.79 0.05 48 1010.8